Weather reports worldwide

Advertisment
Linton-On-Ouse, United Kingdom (3266): temperature & dewpoint: 04.12.2018 09:00:00 - 10.12.2018 09:00:00 (GMT)Linton-On-Ouse, United Kingdom (3266): temperature -20cm & temperature -100cm: 04.12.2018 09:00:00 - 10.12.2018 09:00:00 (GMT)Linton-On-Ouse, United Kingdom (3266): wind speed & gusts: 04.12.2018 09:00:00 - 10.12.2018 09:00:00 (GMT)Linton-On-Ouse, United Kingdom (3266): wind direction: 04.12.2018 09:00:00 - 10.12.2018 09:00:00 (GMT)Linton-On-Ouse, United Kingdom (3266): reduced air pressure: 04.12.2018 09:00:00 - 10.12.2018 09:00:00 (GMT)Linton-On-Ouse, United Kingdom (3266): visibility: 04.12.2018 09:00:00 - 10.12.2018 09:00:00 (GMT)Linton-On-Ouse, United Kingdom (3266): precipitation: 04.12.2018 09:00:00 - 10.12.2018 09:00:00 (GMT)
Date & Time tt [°C] td [°C] tt -20cm [°C] tt -100cm [°C] ff [km/h] ff [kn] fx [km/h] fx [kn] dd ppp [hPa] vv [km] rr [mm]
10.12.2018 09:00:00 2,5 1,3 7,7 8,9 11 6 - - W 1024,9 10 0,0
10.12.2018 08:00:00 0,2 -1,3 - - 8 4 - - WNW 1024,7 10 0,0
10.12.2018 07:00:00 2,8 0,8 - - 8 4 - - WSW 1023,8 10 0,0
10.12.2018 06:00:00 3,0 0,6 - - 8 4 - - W 1023,4 10 0,0
10.12.2018 05:00:00 4,2 1,4 - - 13 7 - - W 1022,9 10 0,0
10.12.2018 04:00:00 3,3 0,2 - - 11 6 - - W 1022,3 30 0,0
10.12.2018 03:00:00 4,0 1,0 - - 18 10 - - W 1021,8 10 0,0
10.12.2018 02:00:00 1,5 -0,3 - - 5 3 - - NNE 1021,3 30 0,0
10.12.2018 01:00:00 1,8 -0,1 - - 5 3 - - WNW 1020,8 10 0,0
10.12.2018 00:00:00 2,3 -0,2 - - 15 8 - - W 1020,3 10 0,0
09.12.2018 23:00:00 2,0 -0,2 - - 11 6 - - W 1019,6 30 0,0
09.12.2018 22:00:00 3,5 0,8 - - 9 5 - - W 1018,9 30 0,0
09.12.2018 21:00:00 2,9 0,4 - - 11 6 - - W 1018,4 10 0,0
09.12.2018 20:00:00 3,0 0,2 - - 13 7 - - W 1017,6 30 0,0
09.12.2018 19:00:00 3,7 0,7 - - 4 2 - - W 1016,7 30 0,0
09.12.2018 18:00:00 4,5 0,9 - - 11 6 - - W 1015,7 30 0,0
09.12.2018 17:00:00 5,7 1,9 - - 15 8 - - W 1014,7 30 0,0
09.12.2018 16:00:00 5,2 1,4 - - 16 9 - - NW 1013,6 35 0,0
09.12.2018 15:00:00 6,3 1,9 - - 21 11 - - WNW 1012,2 10 0,0
09.12.2018 14:00:00 7,8 2,6 - - 22 12 - - NW 1010,7 40 0,0
09.12.2018 13:00:00 7,7 2,6 - - 26 14 - - NW 1009,1 10 0,0
09.12.2018 12:00:00 7,6 2,3 - - 21 11 - - NW 1008,3 40 0,0
09.12.2018 11:00:00 7,2 3,0 - - 18 10 - - NW 1006,8 10 0,0
09.12.2018 10:00:00 5,8 3,4 - - 11 6 - - WNW 1005,0 10 0,0
09.12.2018 09:00:00 4,7 2,7 8,2 8,9 13 7 - - WNW 1003,3 10 0,0
09.12.2018 08:00:00 4,9 2,9 - - 15 8 - - NW 1001,2 45 0,0
09.12.2018 07:00:00 5,7 3,7 - - 18 10 - - NW 998,8 45 0,0
09.12.2018 06:00:00 5,9 4,8 - - 15 8 - - NW 996,8 10 0,0
09.12.2018 05:00:00 6,5 5,1 - - 11 6 - - WNW 995,2 10 0,4
09.12.2018 04:00:00 6,7 5,4 - - 13 7 - - WNW 993,9 9 1,2
09.12.2018 03:00:00 7,3 5,3 - - 26 14 - - WNW 993,2 5 1,2
09.12.2018 02:00:00 8,2 6,1 - - 18 10 - - W 992,4 23 0,0
09.12.2018 01:00:00 8,6 4,9 - - 28 15 48 26 W 991,7 10 0,0
09.12.2018 00:00:00 8,4 5,6 - - 28 15 50 27 W 990,9 10 0,0
08.12.2018 23:00:00 8,8 5,6 - - 24 13 46 25 W 990,3 30 0,0
08.12.2018 22:00:00 8,9 5,3 - - 26 14 - - W 990,3 10 0,0
08.12.2018 21:00:00 8,7 5,5 - - 26 14 48 26 W 990,6 10 0,0
08.12.2018 20:00:00 8,9 5,7 - - 18 10 - - W 990,4 22 0,0
08.12.2018 19:00:00 8,3 5,1 - - 24 13 50 27 W 990,0 10 0,0
08.12.2018 18:00:00 8,4 6,4 - - 22 12 - - WSW 989,7 10 0,0
08.12.2018 17:00:00 8,4 6,8 - - 18 10 63 34 WSW 989,8 35 1,4
08.12.2018 16:00:00 8,7 7,0 - - 21 11 - - SSW 990,2 10 0,2
08.12.2018 15:00:00 8,8 6,0 - - 13 7 - - SW 991,7 10 0,0
08.12.2018 14:00:00 9,2 5,1 - - 29 16 54 29 W 993,3 23 0,0
08.12.2018 13:00:00 9,7 5,1 - - 24 13 52 28 W 994,4 10 0,0
08.12.2018 12:00:00 9,3 5,3 - - 28 15 50 27 W 995,8 10 0,0
08.12.2018 11:00:00 9,1 4,9 - - 29 16 55 30 W 996,5 10 0,0
08.12.2018 10:00:00 9,1 4,7 - - 28 15 70 38 W 996,1 10 0,0
08.12.2018 09:00:00 8,7 4,0 8,2 8,9 41 22 68 37 W 995,8 10 0,0
08.12.2018 08:00:00 8,8 4,7 - - 39 21 65 35 W 995,1 10 0,0
08.12.2018 07:00:00 8,8 5,1 - - 37 20 65 35 W 994,6 25 0,0
08.12.2018 06:00:00 8,8 5,2 - - 41 22 68 37 W 993,9 10 0,0
08.12.2018 05:00:00 8,8 5,3 - - 34 18 65 35 W 992,6 10 0,0
08.12.2018 04:00:00 8,8 5,5 - - 34 18 65 35 W 992,3 10 0,2
08.12.2018 03:00:00 8,4 6,5 - - 42 23 72 39 W 992,1 10 0,0
08.12.2018 02:00:00 8,3 6,1 - - 46 25 70 38 WSW 991,7 7 0,0
08.12.2018 01:00:00 8,1 6,0 - - 42 23 67 36 WSW 992,1 9 0,6
08.12.2018 00:00:00 8,0 5,6 - - 39 21 63 34 W 992,8 14 0,2
07.12.2018 23:00:00 7,5 5,8 - - 31 17 61 33 WSW 993,5 7 0,6
07.12.2018 22:00:00 7,5 4,9 - - 34 18 59 32 WSW 993,5 10 0,0
07.12.2018 21:00:00 7,4 4,1 - - 34 18 54 29 WSW 994,0 12 0,0
07.12.2018 20:00:00 7,2 3,6 - - 34 18 52 28 WSW 994,5 10 0,0
07.12.2018 19:00:00 6,6 3,3 - - 29 16 52 28 WSW 994,8 21 0,0
07.12.2018 18:00:00 6,1 3,1 - - 28 15 - - WSW 994,7 10 0,2
07.12.2018 17:00:00 5,7 2,4 - - 28 15 55 30 W 994,8 10 0,0
07.12.2018 16:00:00 6,3 3,1 - - 31 17 52 28 WSW 994,7 5 0,0
07.12.2018 15:00:00 7,1 2,5 - - 28 15 - - WSW 994,1 10 0,0
07.12.2018 14:00:00 7,3 2,6 - - 26 14 59 32 W 994,3 10 0,0
07.12.2018 13:00:00 8,4 2,8 - - 31 17 55 30 W 994,2 10 0,0
07.12.2018 12:00:00 8,8 3,1 - - 29 16 48 26 W 994,3 20 0,0
07.12.2018 11:00:00 8,5 4,0 - - 22 12 - - W 994,8 19 0,0
07.12.2018 10:00:00 8,8 4,9 - - 21 11 - - W 994,5 10 0,0
07.12.2018 09:00:00 9,2 4,9 8,2 8,7 18 10 - - W 994,3 10 0,0
07.12.2018 08:00:00 9,8 5,7 - - 22 12 46 25 W 993,6 35 0,6
07.12.2018 07:00:00 12,8 10,9 - - 28 15 - - SSW 993,2 10 0,2
07.12.2018 06:00:00 12,7 11,3 - - 29 16 - - SSW 994,4 10 0,2
07.12.2018 05:00:00 12,0 11,5 - - 21 11 - - S 995,6 16 0,6
07.12.2018 04:00:00 11,8 11,3 - - 22 12 - - S 997,4 7 1,8
07.12.2018 03:00:00 11,7 10,9 - - 24 13 - - S 999,1 5 1,4
07.12.2018 02:00:00 11,7 10,4 - - 22 12 - - SSE 1001,2 10 0,0
07.12.2018 01:00:00 10,3 9,6 - - 13 7 - - S 1003,1 10 0,0
07.12.2018 00:00:00 10,2 9,0 - - 5 3 - - SSE 1004,4 16 0,0
06.12.2018 23:00:00 11,2 9,5 - - 9 5 - - SSW 1005,6 10 0,0
06.12.2018 22:00:00 11,7 10,1 - - 18 10 - - SW 1006,2 10 0,0
06.12.2018 21:00:00 12,2 11,3 - - 16 9 - - SW 1007,0 18 0,0
06.12.2018 20:00:00 11,9 11,1 - - 11 6 - - SSE 1007,1 7 0,0
06.12.2018 19:00:00 12,3 11,2 - - 24 13 - - SW 1006,8 10 0,0
06.12.2018 18:00:00 11,7 11,1 - - 8 4 - - SSW 1006,8 7 0,0
06.12.2018 17:00:00 11,6 10,9 - - 15 8 - - SSW 1006,4 8 0,0
06.12.2018 16:00:00 11,7 10,7 - - 22 12 - - SW 1006,2 3,5 0,0
06.12.2018 15:00:00 12,1 10,0 - - 21 11 - - SW 1006,4 5 0,0
06.12.2018 14:00:00 12,5 9,7 - - 26 14 - - SW 1006,3 10 0,0
06.12.2018 13:00:00 12,7 9,8 - - 26 14 - - SW 1006,7 10 0,0
06.12.2018 12:00:00 12,3 9,6 - - 16 9 - - WSW 1007,3 25 0,0
06.12.2018 11:00:00 10,9 9,6 - - 16 9 - - S 1007,3 12 0,0
06.12.2018 10:00:00 9,5 8,6 - - 15 8 - - S 1008,0 10 0,0
06.12.2018 09:00:00 9,6 8,5 7,7 8,9 16 9 - - S 1008,6 10 0,0
06.12.2018 08:00:00 9,7 8,8 - - 15 8 - - S 1008,9 10 0,0
06.12.2018 07:00:00 9,3 8,4 - - 11 6 - - S 1008,7 10 0,0
06.12.2018 06:00:00 9,1 8,0 - - 11 6 - - S 1008,8 10 0,0
06.12.2018 05:00:00 9,2 7,8 - - 5 3 - - WSW 1009,1 10 0,0
06.12.2018 04:00:00 9,7 8,5 - - 11 6 - - WSW 1009,0 10 0,0
06.12.2018 03:00:00 9,5 8,3 - - 8 4 - - WSW 1008,7 30 0,0
06.12.2018 02:00:00 9,1 8,7 - - 18 10 - - WSW 1008,8 23 0,0
06.12.2018 01:00:00 6,4 6,3 - - 8 4 - - S 1008,4 4,4 0,0
06.12.2018 00:00:00 6,2 6,1 - - 5 3 - - S 1007,9 3,1 0,0
05.12.2018 23:00:00 6,1 6,0 - - 5 3 - - WNW 1007,8 3,1 0,0
05.12.2018 22:00:00 6,1 6,0 - - 5 3 - - W 1007,3 2,5 0,2
05.12.2018 21:00:00 6,1 6,0 - - 11 6 - - NW 1007,0 1,6 0,0
05.12.2018 20:00:00 6,3 6,2 - - 5 3 - - WNW 1007,0 0,4 0,0
05.12.2018 19:00:00 6,4 6,2 - - 4 2 - - WNW 1006,6 0,3 0,6
05.12.2018 18:00:00 6,5 6,3 - - 2 1 - - NE 1006,4 0,2 0,2
05.12.2018 17:00:00 6,7 6,5 - - 4 2 - - E 1006,4 2,1 1,4
05.12.2018 16:00:00 6,6 6,4 - - 4 2 - - ESE 1007,0 2,3 1,2
05.12.2018 15:00:00 6,4 6,3 - - 9 5 - - ESE 1007,5 4,1 1,0
05.12.2018 14:00:00 6,2 6,0 - - 13 7 - - ESE 1008,7 4,7 1,2
05.12.2018 13:00:00 5,9 5,8 - - 15 8 - - ESE 1010,0 4,1 1,6
05.12.2018 12:00:00 5,7 5,5 - - 13 7 - - ESE 1011,8 4,0 1,2
05.12.2018 11:00:00 5,1 5,0 - - 13 7 - - ESE 1013,3 3,5 1,4
05.12.2018 10:00:00 4,6 4,5 - - 15 8 - - ESE 1014,3 2,5 1,8
05.12.2018 09:00:00 4,0 3,9 7,4 9,2 15 8 - - E 1015,3 2,5 1,0
05.12.2018 08:00:00 3,6 3,6 - - 11 6 - - E 1016,1 3,0 0,6
05.12.2018 07:00:00 3,1 3,1 - - 11 6 - - ESE 1016,8 2,5 0,2
05.12.2018 06:00:00 2,5 2,5 - - 11 6 - - ESE 1017,7 2,0 0,2
05.12.2018 05:00:00 2,0 2,0 - - 11 6 - - E 1018,7 1,2 0,0
05.12.2018 04:00:00 1,8 1,7 - - 9 5 - - ESE 1019,3 0,3 0,0
05.12.2018 03:00:00 1,3 1,3 - - 9 5 - - E 1020,3 0,1 0,0
05.12.2018 02:00:00 1,1 1,0 - - 4 2 - - E 1020,6 0,2 0,0
05.12.2018 01:00:00 0,8 0,7 - - 5 3 - - ESE 1021,1 0,2 0,0
05.12.2018 00:00:00 0,4 0,3 - - 8 4 - - E 1021,7 0,1 0,0
04.12.2018 23:00:00 0,1 0,0 - - 8 4 - - E 1021,9 0,1 0,0
04.12.2018 22:00:00 0,0 -0,1 - - 5 3 - - E 1022,0 - 0,0
04.12.2018 21:00:00 -0,3 -0,4 - - 5 3 - - ENE 1022,0 0,1 0,0
04.12.2018 20:00:00 1,0 0,9 - - 5 3 - - SE 1022,2 2,3 0,0
04.12.2018 19:00:00 0,7 0,5 - - 5 3 - - ESE 1022,2 2,1 0,0
04.12.2018 18:00:00 0,5 0,3 - - 4 2 - - ENE 1022,0 1,7 0,0
04.12.2018 17:00:00 0,2 0,1 - - 2 1 - - ESE 1022,1 3,2 0,0
04.12.2018 16:00:00 0,6 0,5 - - 4 2 - - E 1021,8 4,4 0,0
04.12.2018 15:00:00 0,6 0,5 - - 4 2 - - E 1021,5 2,5 0,0
04.12.2018 14:00:00 0,8 0,7 - - 5 3 - - ESE 1021,6 0,4 0,0
04.12.2018 13:00:00 1,3 1,2 - - 8 4 - - ESE 1021,5 0,1 0,2
04.12.2018 12:00:00 0,4 0,2 - - 9 5 - - S 1021,5 - 0,0
04.12.2018 11:00:00 -0,1 -0,4 - - 5 3 - - SSE 1020,9 0,1 0,0
04.12.2018 10:00:00 0,7 0,4 - - 5 3 - - SE 1020,7 10 0,0
04.12.2018 09:00:00 -2,6 -3,0 8,0 9,2 4 2 - - SE 1020,1 10 0,0

tt = temperature
td = dewpoint
tt -20cm = temperature -20cm
tt -100cm = temperature -100cm
ff = wind speed
fx = gusts
dd = wind direction
ppp = reduced air pressure
vv = visibility
rr = precipitation

Next stations